SCP
-0 0 -0 -0 -0 -0 0 0 0 0 0 -0 0 0 0 0 0 0 0 -0 -0 0 0 0 -0 -0 -0 -0 0 0 0 0 0 0 0 0 0 0 0 0 0 0 0 0 0 0 0 0 0
0 0 0 0 -0 0 0 0 -0 0 -0 -0 0 0 0 0 0 0 0 -0 0 0 0 -0 0 0 0 0 0 0 0 0 0 0 0 0 0 0 0 0 0 0 0 0 0 0 0 0 0
0 0 0 0 0 0 0 0 0 0 0 0 0 0 0 0 0 0 0 0 0 0 0 0 0 0 0 0 0 0 0 0 0 0 0 0 0 0 0 0 0 0 0 0 0 0 0 0 0
0 0 0 0 0 0 0 0 0 -0 0 0 0 0 0 0 0 0 0 0 0 0 0 0 0 0 0 0 0 0 0 0 0 0 0 0 0 0 0 0 0 0 0 0 0 0 0 0 0
0 0 0 0 0 0 0 0 -0 0 0 0 0 0 0 0 0 0 0 0 0 0 0 0 0 0 0 0 0 0 0 0 0 0 0 0 0 0 0 0 0 0 0 0 0 0 0 0 0
0 0 0 0 0 0 0 0 0 0 0 0 0 0 0 0 0 0 0 0 0 0 0 0 0 0 0 0 0 0 0 0 0 0 0 0 0 0 0 0 0 0 0 0 0 0 0 0 0
0 0 0 0 0 0 0 0 0 0 0 0 0 0 0 0 0 0 0 0 0 0 0 0 0 0 0 0 0 0 0 0 0 0 0 0 0 0 0 0 0 0 0 0 0 0 0 0 0
0 0 0 0 0 0 0 0 0 0 0 0 0 0 0 0 0 0 0 0 0 0 0 0 0 0 0 0 0 0 0 0 0 0 0 0 0 0 0 0 0 0 0 0 0 0 0 0 0
0 0 0 0 0 0 0 0 0 0 0 0 0 0 0 0 0 0 0 0 0 0 0 0 0 0 0 0 0 0 0 0 0 0 0 0 0 0 0 0 0 0 0 0 0 0 0 0 0
0 0 0 0 0 0 0 0 0 0 0 0 0 0 0 0 0 0 0 0 0 0 0 0 0 0 0 0 0 0 0 0 0 0 0 0 0 0 0 0 0 0 0 0 0 0 0 0 0
0 0 0 0 0 0 0 0 0 0 0 0 0 0 0 0 0 0 0 0 0 0 0 0 0 0 0 0 0 0 0 0 0 0 0 0 0 0 0 0 0 0 0 0 0 0 0 0 0
0 0 0 0 0 0 0 0 0 0 0 0 0 0 0 0 0 0 0 0 0 0 0 0 0 0 0 0 0 0 0 0 0 0 0 0 0 0 0 0 0 0 0 0 0 0 0 0 0
0 0 0 0 0 0 0 0 0 0 0 0 0 0 0 0 0 0 0 0 0 0 0 0 0 0 0 0 0 0 0 0 0 0 0 0 0 0 0 0 0 0 0 0 0 0 0 0 0
0 0 0 0 0 0 0 0 0 0 0 0 0 0 0 0 0 0 0 0 0 0 0 0 0 0 0 0 0 0 0 0 0 0 0 0 0 0 0 0 0 0 0 0 0 0 0 0 0
0 0 0 0 0 0 0 0 0 0 0 0 0 0 0 0 0 0 0 0 0 0 0 0 0 0 0 0 0 0 0 0 0 0 0 0 0 0 0 0 0 0 0 0 0 0 0 0 0
0 0 0 0 0 0 0 0 0 0 0 0 0 0 0 0 0 0 0 0 0 0 0 0 0 0 0 0 0 0 0 0 0 0 0 0 0 0 0 0 0 0 0 0 0 0 0 0 0
0 0 0 0 0 0 0 0 0 0 0 0 0 0 0 0 0 0 0 0 0 0 0 0 0 0 0 0 0 0 0 0 0 0 0 0 0 0 0 0 0 0 0 0 0 0 0 0 0
0 0 0 0 0 0 0 0 0 0 0 0 0 0 0 0 0 0 0 0 0 0 0 0 0 0 0 0 0 0 0 0 0 0 0 0 0 0 0 0 0 0 0 0 0 0 0 0 0
0 0 0 0 0 0 0 0 0 0 0 0 0 0 0 0 0 0 0 0 0 0 0 0 0 0 0 0 0 0 0 0 0 0 0 0 0 0 0 0 0 0 0 0 0 0 0 0 0
0 0 0 0 0 0 0 0 -0 0 0 0 0 0 0 0 0 0 0 0 0 0 0 0 0 0 0 0 0 0 0 0 0 0 0 0 0 0 0 0 0 0 0 0 0 0 0 0 0
0 0 0 0 0 0 0 0 0 0 0 0 0 0 0 0 0 0 0 0 0 0 0 0 0 0 0 0 0 0 0 0 0 0 0 0 0 0 0 0 0 0 0 0 0 0 0 0 0
0 0 0 0 0 0 0 0 0 0 0 0 0 0 0 0 0 0 0 0 0 0 0 0 0 0 0 0 0 0 0 0 0 0 0 0 0 0 0 0 0 0 0 0 0 0 0 0 0
0 0 0 0 0 0 0 0 0 0 0 0 0 0 0 0 0 0 0 0 0 0 0 0 0 0 0 0 0 0 0 0 0 0 0 0 0 0 0 0 0 0 0 0 0 0 0 0 0
0 0 0 0 0 0 0 0 0 0 0 0 0 0 0 0 0 0 0 0 0 0 0 0 0 0 0 0 0 0 0 0 0 0 0 0 0 0 0 0 0 0 0 0 0 0 0 0 0
0 0 0 0 0 0 0 0 0 0 0 0 0 0 0 0 0 0 0 0 0 0 0 0 0 0 0 0 0 0 0 0 0 0 0 0 0 0 0 0 0 0 0 0 0 0 0 0 0
0 0 0 0 0 0 0 0 0 0 0 0 0 0 0 0 0 0 0 0 0 0 0 0 0 0 0 0 0 0 0 0 0 0 0 0 0 0 0 0 0 0 0 0 0 0 0 0 0
0 0 0 0 0 0 0 0 0 0 0 0 0 0 0 0 0 0 0 0 0 0 0 0 0 0 0 0 0 0 0 0 0 0 0 0 0 0 0 0 0 0 0 0 0 0 0 0 0
0 0 0 0 0 0 0 0 0 0 0 0 0 0 0 0 0 0 0 0 0 0 0 0 0 0 0 0 0 0 0 0 0 0 0 0 0 0 0 0 0 0 0 0 0 0 0 0 0
0 0 0 0 0 0 0 0 0 0 0 -0 0 0 0 0 0 0 0 0 0 0 0 0 0 0 0 0 0 0 0 0 0 0 0 0 0 0 0 0 0 0 0 0 0 0 0 0 0
0 0 0 0 0 0 0 0 0 0 0 0 0 -0 0 0 0 0 0 0 0 0 0 0 0 0 0 0 0 0 0 0 0 0 0 0 0 0 0 0 0 0 0 0 0 0 0 0 0
Wind_Speed_500mb
15 12 4 4 8 9 3 6 7 9 4 4 9 6 11 11 3 4 7 7 14 18 19 25 28 29 35 37 41 47 54 57 59 57 58 60 63 65 66 67 68 67 63 61 59 54 56 53 50
13 12 5 9 9 5 4 3 10 8 24 37 28 18 7 5 10 12 10 3 11 17 20 24 26 29 35 39 46 50 53 51 52 54 55 56 58 60 64 68 70 69 69 67 64 61 58 56 56
11 9 6 8 6 7 8 8 10 22 33 9 11 8 10 16 15 11 9 5 13 15 19 24 30 33 36 41 45 48 44 48 50 52 55 58 59 61 62 63 64 67 70 70 66 64 62 62 60
8 6 14 8 4 5 4 12 21 24 5 12 17 12 11 14 15 12 7 7 10 11 15 23 28 30 36 41 43 39 43 47 50 53 54 56 58 60 62 65 68 69 68 69 71 72 67 65 61
8 10 9 7 3 2 1 21 46 14 15 17 16 12 14 18 18 13 8 5 4 10 16 20 23 27 33 34 33 37 42 45 49 53 55 58 62 64 66 69 70 71 71 71 69 67 69 67 65
10 8 8 3 5 1 3 40 24 12 18 19 15 25 15 24 20 14 10 4 3 8 13 17 20 26 29 29 33 39 43 45 47 50 53 58 63 66 70 73 75 75 75 71 68 68 67 66 71
14 8 7 8 9 4 11 34 17 18 19 15 22 15 15 32 25 19 12 6 1 8 12 13 18 23 27 29 30 35 39 43 48 53 59 63 65 69 73 75 76 78 79 75 71 72 69 68 71
14 12 9 7 11 9 22 26 21 22 12 19 22 12 12 43 32 24 16 9 1 5 7 11 17 20 24 28 32 37 40 43 48 52 57 59 63 70 72 76 79 81 78 75 74 72 69 70 68
13 9 6 12 14 8 34 11 22 14 17 22 20 10 11 43 38 30 22 13 5 3 5 9 13 19 23 26 33 37 37 42 45 51 56 61 68 71 75 77 79 77 77 76 72 70 72 71 69
8 8 14 11 14 10 35 18 36 15 19 19 21 22 24 46 40 33 26 17 10 7 4 7 12 18 23 27 31 34 38 43 47 53 57 63 68 72 75 77 77 76 76 74 72 71 70 74 78
5 8 3 4 10 25 31 21 31 24 9 31 43 41 43 50 44 38 30 21 17 11 4 6 13 17 22 27 31 34 39 42 47 52 58 61 68 72 77 80 81 80 79 81 80 79 79 78 80
9 9 6 5 5 21 24 27 14 34 10 14 29 39 49 52 48 43 35 27 19 11 5 6 12 17 22 27 30 34 37 42 47 53 59 64 70 74 77 79 79 78 78 79 79 80 81 80 81
8 4 10 8 12 15 22 5 7 30 33 19 32 47 50 48 44 41 33 29 22 13 7 6 11 17 22 25 29 32 36 42 48 52 57 64 69 73 76 77 76 76 76 78 80 81 81 80 83
11 17 14 9 12 13 7 4 5 18 40 28 38 53 53 49 48 43 38 30 24 16 10 7 10 16 21 24 27 31 35 39 44 49 56 62 69 73 75 75 75 74 76 76 79 82 83 82 86
18 10 7 5 9 8 9 12 19 24 30 37 48 54 53 49 48 43 35 31 26 18 13 8 10 15 20 23 25 29 32 37 41 47 54 60 66 70 72 72 72 72 72 74 76 79 79 80 84
9 9 6 7 13 9 13 16 2 31 41 51 57 59 56 55 53 46 43 37 31 24 17 11 10 14 19 22 24 27 30 34 39 46 53 58 65 69 69 70 69 69 69 71 72 78 82 80 86
10 7 7 7 17 9 11 14 7 28 49 55 60 64 62 60 58 57 51 43 35 32 23 16 11 12 17 20 22 24 27 31 38 45 52 59 65 65 66 67 66 64 64 67 71 71 79 82 84
14 8 6 9 8 6 5 35 13 24 49 63 66 69 70 70 70 62 54 49 45 38 29 23 14 12 14 18 20 22 25 30 36 44 53 59 63 64 65 64 62 62 63 66 68 72 69 76 81
14 7 8 7 4 8 16 29 34 35 48 52 72 79 83 84 67 59 58 56 53 47 37 27 17 13 14 16 17 18 20 26 35 43 52 55 60 64 66 62 60 59 58 62 65 69 74 74 79
8 6 4 5 2 8 8 27 34 26 37 69 78 82 90 84 77 72 69 68 61 48 39 30 22 15 15 17 18 19 22 27 33 41 47 55 61 61 59 58 56 56 56 56 60 66 72 71 69
2 8 7 3 3 8 15 16 14 11 43 38 67 81 86 92 89 83 80 76 66 58 46 35 26 20 17 17 18 19 21 26 29 36 48 53 55 57 57 55 52 50 49 53 58 61 64 68 64
5 1 8 7 2 8 5 13 12 9 16 16 49 72 75 83 85 86 86 83 74 63 51 42 33 24 20 18 17 18 19 25 33 41 48 50 53 55 55 52 49 47 46 46 50 56 57 60 63
6 6 9 5 4 8 3 4 14 5 14 22 27 60 65 75 79 86 92 82 72 65 57 46 37 29 23 19 17 18 20 24 30 37 43 46 48 51 51 50 49 44 41 42 46 49 51 53 54
18 11 12 8 5 6 6 4 10 7 10 11 6 13 37 52 60 70 76 80 77 70 62 52 42 33 26 20 15 17 18 22 27 35 42 45 47 48 47 46 45 44 41 40 41 44 46 48 50
3 10 4 8 6 12 4 5 21 18 15 11 8 8 4 19 40 58 71 83 83 79 70 59 48 38 30 21 15 16 16 20 27 36 42 45 46 48 48 48 46 45 42 39 39 41 43 46 48
8 8 11 15 8 8 3 12 12 16 18 15 25 34 29 28 36 47 63 75 84 83 74 65 53 43 33 23 17 14 14 17 24 33 40 43 45 47 47 45 44 43 42 39 37 37 39 42 43
12 9 6 15 5 6 7 16 21 14 20 25 29 18 19 24 35 40 53 69 80 86 77 68 57 47 37 27 19 14 12 13 21 29 35 37 39 42 43 43 42 42 41 41 38 35 34 39 41
5 9 6 5 5 9 8 12 16 13 10 10 12 44 42 25 34 40 47 61 74 81 77 70 59 48 37 30 22 15 12 10 17 24 30 32 34 38 39 39 38 38 41 42 40 36 32 35 41
2 5 4 5 8 11 5 13 15 17 12 16 15 15 25 38 38 41 46 56 67 79 81 75 66 55 45 34 25 18 14 8 12 19 24 26 30 34 36 37 37 39 43 47 43 37 30 31 35
7 13 14 9 12 4 6 13 11 14 14 17 29 25 18 27 33 39 45 52 66 79 86 81 71 60 48 38 29 21 18 8 8 14 19 21 26 31 34 35 35 36 42 46 47 39 29 30 32
Wind_Direction_500mb
128 114 105 31 60 67 134 182 134 138 180 206 155 162 132 83 101 148 159 347 354 5 7 12 27 28 29 27 24 24 19 16 11 7 3 360 358 357 356 355 354 354 354 352 347 341 338 335 326
129 114 100 85 88 84 237 186 167 158 133 117 106 104 89 104 121 126 157 1 21 19 15 13 27 33 25 25 25 22 18 11 7 5 3 1 360 358 357 356 354 352 349 346 343 341 337 335 331
146 131 72 83 98 153 170 190 147 134 143 140 117 105 126 137 151 151 153 68 32 17 11 15 23 23 22 25 22 20 11 9 7 6 5 5 3 1 358 354 350 347 345 344 343 341 338 331 327
140 98 64 79 120 217 164 152 144 141 166 168 147 104 133 159 158 167 134 67 37 16 16 20 24 22 23 22 19 11 9 8 7 8 7 4 3 360 357 355 352 348 345 340 336 333 336 333 329
119 78 65 70 167 162 71 160 153 149 154 158 162 169 146 159 164 158 129 75 15 13 22 23 22 20 22 18 10 10 9 8 8 8 6 4 1 359 357 355 352 349 345 342 339 334 331 331 329
77 74 67 186 220 103 105 159 156 143 160 162 153 145 163 170 167 162 157 166 9 13 22 20 17 19 17 11 7 8 8 8 8 7 7 6 2 359 359 356 353 349 346 342 339 336 334 331 325
108 79 139 143 169 194 184 168 175 169 168 197 160 139 171 179 176 179 177 186 359 12 17 11 15 15 12 9 7 9 8 8 8 8 8 5 2 1 359 355 352 348 346 346 344 339 335 329 326
110 92 116 196 183 230 170 168 185 172 185 166 174 185 187 186 179 180 187 193 210 9 354 2 12 7 9 7 8 10 7 7 10 9 7 4 2 2 356 354 352 350 349 346 343 337 335 332 331
120 73 164 197 154 199 170 151 174 184 158 178 196 201 199 181 179 183 192 196 212 274 330 355 359 4 5 4 10 9 5 8 9 9 7 2 3 359 356 355 353 349 347 347 344 342 340 336 334
93 116 205 183 178 178 176 172 166 162 172 203 202 203 186 180 182 189 195 201 217 243 283 339 348 356 359 4 7 4 6 8 8 8 5 5 2 358 355 353 352 351 349 346 345 344 342 339 339
72 159 123 55 193 179 163 168 174 163 216 209 205 191 179 181 188 195 199 206 219 223 254 329 347 351 357 1 5 3 6 7 7 6 5 3 360 356 355 355 355 354 351 351 350 348 348 346 343
89 64 49 47 160 166 165 164 190 201 201 224 218 209 189 188 195 199 201 207 214 217 242 322 336 349 354 360 360 2 4 6 6 5 2 1 358 357 356 356 355 354 352 351 350 349 347 345 344
81 102 66 100 160 162 159 169 249 232 223 232 208 198 197 196 200 201 202 207 213 216 236 302 336 348 351 355 356 359 4 6 6 3 0 0 356 356 356 355 354 352 352 351 350 351 349 347 346
123 109 110 105 132 143 161 226 218 237 216 222 205 199 198 202 205 202 205 209 217 218 235 286 333 343 347 351 353 358 3 4 3 359 360 358 355 354 355 354 353 352 351 351 350 351 351 350 350
134 90 113 139 166 155 166 260 230 228 203 204 198 200 202 206 208 213 216 215 220 222 236 277 324 335 343 346 349 356 359 1 359 358 359 356 354 353 352 353 353 351 349 350 350 351 354 351 353
65 59 132 219 176 186 156 258 267 207 196 202 202 204 207 208 214 214 215 215 219 223 233 260 297 327 337 342 345 352 356 356 357 357 356 353 354 352 350 351 351 351 350 349 351 353 355 354 355
9 200 195 267 210 170 180 265 194 198 203 211 210 213 213 213 215 215 216 216 218 224 227 244 276 312 328 334 340 346 349 353 353 355 354 354 353 349 349 349 350 349 349 352 353 357 358 358 357
191 201 213 237 218 242 188 257 240 206 209 221 222 222 220 219 221 219 215 216 218 222 224 234 252 285 319 326 332 340 344 348 350 354 354 352 349 348 349 348 348 349 351 353 355 357 4 2 0
120 132 162 238 225 223 238 262 257 225 226 227 231 228 227 226 223 219 220 220 219 220 222 229 242 271 305 320 323 328 331 346 352 353 351 348 349 350 350 347 348 349 352 354 355 358 1 8 7
107 115 248 299 241 200 331 273 269 212 232 224 224 228 229 230 223 219 218 219 220 223 222 228 238 259 290 306 313 327 337 347 351 353 346 350 352 349 346 349 350 348 349 353 358 3 3 9 16
126 165 179 250 290 256 321 275 265 263 235 238 233 238 237 232 225 219 217 219 219 218 221 226 235 250 274 296 309 323 335 339 347 348 352 351 348 347 351 351 348 346 349 353 360 3 6 6 12
180 154 115 127 88 265 3 288 303 294 279 232 232 227 228 232 230 226 219 218 217 218 218 222 229 242 262 285 303 315 324 338 349 353 351 350 349 352 351 350 350 350 348 351 358 2 6 6 10
169 118 105 91 72 342 202 305 269 339 284 262 239 237 235 235 232 226 222 221 219 217 219 222 226 234 250 274 295 312 323 340 346 352 348 351 353 353 351 352 352 351 351 351 356 360 4 9 11
151 78 55 59 37 335 334 220 277 236 221 306 339 238 234 234 232 231 228 221 216 213 215 220 225 231 241 260 284 301 318 335 343 348 349 354 356 357 356 355 355 354 353 353 355 358 1 9 13
89 95 346 352 9 228 37 284 253 272 257 230 282 296 204 220 223 223 220 216 212 211 212 216 221 227 235 247 269 289 313 330 343 348 350 356 357 359 359 359 359 358 357 355 354 354 359 6 12
186 176 164 203 198 261 49 240 246 213 259 256 256 264 256 223 216 218 219 217 213 211 213 215 217 222 229 239 254 275 303 324 343 350 351 356 358 0 359 359 358 358 358 357 354 353 358 6 12
185 201 157 98 22 57 240 283 292 293 264 253 247 238 235 215 210 211 213 215 213 211 213 215 215 218 223 230 244 260 285 319 343 350 353 355 359 2 359 359 360 360 359 359 357 355 358 6 13
184 156 91 2 195 248 277 280 236 299 322 340 246 238 238 229 215 212 212 214 212 211 212 213 214 219 221 226 236 247 262 308 339 351 354 354 2 4 1 2 3 2 0 2 5 0 360 7 15
110 226 19 142 161 182 179 254 207 227 243 254 255 257 232 220 220 216 213 213 213 209 210 211 212 213 216 220 228 235 243 281 334 351 355 354 8 7 5 5 6 6 5 4 8 6 7 9 17
192 212 176 147 223 228 145 271 206 237 245 241 267 252 239 221 225 223 218 213 210 208 208 209 210 212 213 216 220 224 229 246 320 352 353 358 13 12 10 10 9 9 9 4 9 9 12 13 16
Wind_Speed_850mb
15 12 4 4 8 9 3 6 7 9 4 4 9 6 11 11 3 4 7 7 14 18 19 25 28 29 35 37 41 47 54 57 59 57 58 60 63 65 66 67 68 67 63 61 59 54 56 53 50
13 12 5 9 9 5 4 3 10 8 24 37 28 18 7 5 10 12 10 3 11 17 20 24 26 29 35 39 46 50 53 51 52 54 55 56 58 60 64 68 70 69 69 67 64 61 58 56 56
11 9 6 8 6 7 8 8 10 22 33 9 11 8 10 16 15 11 9 5 13 15 19 24 30 33 36 41 45 48 44 48 50 52 55 58 59 61 62 63 64 67 70 70 66 64 62 62 60
8 6 14 8 4 5 4 12 21 24 5 12 17 12 11 14 15 12 7 7 10 11 15 23 28 30 36 41 43 39 43 47 50 53 54 56 58 60 62 65 68 69 68 69 71 72 67 65 61
8 10 9 7 3 2 1 21 46 14 15 17 16 12 14 18 18 13 8 5 4 10 16 20 23 27 33 34 33 37 42 45 49 53 55 58 62 64 66 69 70 71 71 71 69 67 69 67 65
10 8 8 3 5 1 3 40 24 12 18 19 15 25 15 24 20 14 10 4 3 8 13 17 20 26 29 29 33 39 43 45 47 50 53 58 63 66 70 73 75 75 75 71 68 68 67 66 71
14 8 7 8 9 4 11 34 17 18 19 15 22 15 15 32 25 19 12 6 1 8 12 13 18 23 27 29 30 35 39 43 48 53 59 63 65 69 73 75 76 78 79 75 71 72 69 68 71
14 12 9 7 11 9 22 26 21 22 12 19 22 12 12 43 32 24 16 9 1 5 7 11 17 20 24 28 32 37 40 43 48 52 57 59 63 70 72 76 79 81 78 75 74 72 69 70 68
13 9 6 12 14 8 34 11 22 14 17 22 20 10 11 43 38 30 22 13 5 3 5 9 13 19 23 26 33 37 37 42 45 51 56 61 68 71 75 77 79 77 77 76 72 70 72 71 69
8 8 14 11 14 10 35 18 36 15 19 19 21 22 24 46 40 33 26 17 10 7 4 7 12 18 23 27 31 34 38 43 47 53 57 63 68 72 75 77 77 76 76 74 72 71 70 74 78
5 8 3 4 10 25 31 21 31 24 9 31 43 41 43 50 44 38 30 21 17 11 4 6 13 17 22 27 31 34 39 42 47 52 58 61 68 72 77 80 81 80 79 81 80 79 79 78 80
9 9 6 5 5 21 24 27 14 34 10 14 29 39 49 52 48 43 35 27 19 11 5 6 12 17 22 27 30 34 37 42 47 53 59 64 70 74 77 79 79 78 78 79 79 80 81 80 81
8 4 10 8 12 15 22 5 7 30 33 19 32 47 50 48 44 41 33 29 22 13 7 6 11 17 22 25 29 32 36 42 48 52 57 64 69 73 76 77 76 76 76 78 80 81 81 80 83
11 17 14 9 12 13 7 4 5 18 40 28 38 53 53 49 48 43 38 30 24 16 10 7 10 16 21 24 27 31 35 39 44 49 56 62 69 73 75 75 75 74 76 76 79 82 83 82 86
18 10 7 5 9 8 9 12 19 24 30 37 48 54 53 49 48 43 35 31 26 18 13 8 10 15 20 23 25 29 32 37 41 47 54 60 66 70 72 72 72 72 72 74 76 79 79 80 84
9 9 6 7 13 9 13 16 2 31 41 51 57 59 56 55 53 46 43 37 31 24 17 11 10 14 19 22 24 27 30 34 39 46 53 58 65 69 69 70 69 69 69 71 72 78 82 80 86
10 7 7 7 17 9 11 14 7 28 49 55 60 64 62 60 58 57 51 43 35 32 23 16 11 12 17 20 22 24 27 31 38 45 52 59 65 65 66 67 66 64 64 67 71 71 79 82 84
14 8 6 9 8 6 5 35 13 24 49 63 66 69 70 70 70 62 54 49 45 38 29 23 14 12 14 18 20 22 25 30 36 44 53 59 63 64 65 64 62 62 63 66 68 72 69 76 81
14 7 8 7 4 8 16 29 34 35 48 52 72 79 83 84 67 59 58 56 53 47 37 27 17 13 14 16 17 18 20 26 35 43 52 55 60 64 66 62 60 59 58 62 65 69 74 74 79
8 6 4 5 2 8 8 27 34 26 37 69 78 82 90 84 77 72 69 68 61 48 39 30 22 15 15 17 18 19 22 27 33 41 47 55 61 61 59 58 56 56 56 56 60 66 72 71 69
2 8 7 3 3 8 15 16 14 11 43 38 67 81 86 92 89 83 80 76 66 58 46 35 26 20 17 17 18 19 21 26 29 36 48 53 55 57 57 55 52 50 49 53 58 61 64 68 64
5 1 8 7 2 8 5 13 12 9 16 16 49 72 75 83 85 86 86 83 74 63 51 42 33 24 20 18 17 18 19 25 33 41 48 50 53 55 55 52 49 47 46 46 50 56 57 60 63
6 6 9 5 4 8 3 4 14 5 14 22 27 60 65 75 79 86 92 82 72 65 57 46 37 29 23 19 17 18 20 24 30 37 43 46 48 51 51 50 49 44 41 42 46 49 51 53 54
18 11 12 8 5 6 6 4 10 7 10 11 6 13 37 52 60 70 76 80 77 70 62 52 42 33 26 20 15 17 18 22 27 35 42 45 47 48 47 46 45 44 41 40 41 44 46 48 50
3 10 4 8 6 12 4 5 21 18 15 11 8 8 4 19 40 58 71 83 83 79 70 59 48 38 30 21 15 16 16 20 27 36 42 45 46 48 48 48 46 45 42 39 39 41 43 46 48
8 8 11 15 8 8 3 12 12 16 18 15 25 34 29 28 36 47 63 75 84 83 74 65 53 43 33 23 17 14 14 17 24 33 40 43 45 47 47 45 44 43 42 39 37 37 39 42 43
12 9 6 15 5 6 7 16 21 14 20 25 29 18 19 24 35 40 53 69 80 86 77 68 57 47 37 27 19 14 12 13 21 29 35 37 39 42 43 43 42 42 41 41 38 35 34 39 41
5 9 6 5 5 9 8 12 16 13 10 10 12 44 42 25 34 40 47 61 74 81 77 70 59 48 37 30 22 15 12 10 17 24 30 32 34 38 39 39 38 38 41 42 40 36 32 35 41
2 5 4 5 8 11 5 13 15 17 12 16 15 15 25 38 38 41 46 56 67 79 81 75 66 55 45 34 25 18 14 8 12 19 24 26 30 34 36 37 37 39 43 47 43 37 30 31 35
7 13 14 9 12 4 6 13 11 14 14 17 29 25 18 27 33 39 45 52 66 79 86 81 71 60 48 38 29 21 18 8 8 14 19 21 26 31 34 35 35 36 42 46 47 39 29 30 32
Wind_Direction_850mb
128 114 105 31 60 67 134 182 134 138 180 206 155 162 132 83 101 148 159 347 354 5 7 12 27 28 29 27 24 24 19 16 11 7 3 360 358 357 356 355 354 354 354 352 347 341 338 335 326
129 114 100 85 88 84 237 186 167 158 133 117 106 104 89 104 121 126 157 1 21 19 15 13 27 33 25 25 25 22 18 11 7 5 3 1 360 358 357 356 354 352 349 346 343 341 337 335 331
146 131 72 83 98 153 170 190 147 134 143 140 117 105 126 137 151 151 153 68 32 17 11 15 23 23 22 25 22 20 11 9 7 6 5 5 3 1 358 354 350 347 345 344 343 341 338 331 327
140 98 64 79 120 217 164 152 144 141 166 168 147 104 133 159 158 167 134 67 37 16 16 20 24 22 23 22 19 11 9 8 7 8 7 4 3 360 357 355 352 348 345 340 336 333 336 333 329
119 78 65 70 167 162 71 160 153 149 154 158 162 169 146 159 164 158 129 75 15 13 22 23 22 20 22 18 10 10 9 8 8 8 6 4 1 359 357 355 352 349 345 342 339 334 331 331 329
77 74 67 186 220 103 105 159 156 143 160 162 153 145 163 170 167 162 157 166 9 13 22 20 17 19 17 11 7 8 8 8 8 7 7 6 2 359 359 356 353 349 346 342 339 336 334 331 325
108 79 139 143 169 194 184 168 175 169 168 197 160 139 171 179 176 179 177 186 359 12 17 11 15 15 12 9 7 9 8 8 8 8 8 5 2 1 359 355 352 348 346 346 344 339 335 329 326
110 92 116 196 183 230 170 168 185 172 185 166 174 185 187 186 179 180 187 193 210 9 354 2 12 7 9 7 8 10 7 7 10 9 7 4 2 2 356 354 352 350 349 346 343 337 335 332 331
120 73 164 197 154 199 170 151 174 184 158 178 196 201 199 181 179 183 192 196 212 274 330 355 359 4 5 4 10 9 5 8 9 9 7 2 3 359 356 355 353 349 347 347 344 342 340 336 334
93 116 205 183 178 178 176 172 166 162 172 203 202 203 186 180 182 189 195 201 217 243 283 339 348 356 359 4 7 4 6 8 8 8 5 5 2 358 355 353 352 351 349 346 345 344 342 339 339
72 159 123 55 193 179 163 168 174 163 216 209 205 191 179 181 188 195 199 206 219 223 254 329 347 351 357 1 5 3 6 7 7 6 5 3 360 356 355 355 355 354 351 351 350 348 348 346 343
89 64 49 47 160 166 165 164 190 201 201 224 218 209 189 188 195 199 201 207 214 217 242 322 336 349 354 360 360 2 4 6 6 5 2 1 358 357 356 356 355 354 352 351 350 349 347 345 344
81 102 66 100 160 162 159 169 249 232 223 232 208 198 197 196 200 201 202 207 213 216 236 302 336 348 351 355 356 359 4 6 6 3 0 0 356 356 356 355 354 352 352 351 350 351 349 347 346
123 109 110 105 132 143 161 226 218 237 216 222 205 199 198 202 205 202 205 209 217 218 235 286 333 343 347 351 353 358 3 4 3 359 360 358 355 354 355 354 353 352 351 351 350 351 351 350 350
134 90 113 139 166 155 166 260 230 228 203 204 198 200 202 206 208 213 216 215 220 222 236 277 324 335 343 346 349 356 359 1 359 358 359 356 354 353 352 353 353 351 349 350 350 351 354 351 353
65 59 132 219 176 186 156 258 267 207 196 202 202 204 207 208 214 214 215 215 219 223 233 260 297 327 337 342 345 352 356 356 357 357 356 353 354 352 350 351 351 351 350 349 351 353 355 354 355
9 200 195 267 210 170 180 265 194 198 203 211 210 213 213 213 215 215 216 216 218 224 227 244 276 312 328 334 340 346 349 353 353 355 354 354 353 349 349 349 350 349 349 352 353 357 358 358 357
191 201 213 237 218 242 188 257 240 206 209 221 222 222 220 219 221 219 215 216 218 222 224 234 252 285 319 326 332 340 344 348 350 354 354 352 349 348 349 348 348 349 351 353 355 357 4 2 0
120 132 162 238 225 223 238 262 257 225 226 227 231 228 227 226 223 219 220 220 219 220 222 229 242 271 305 320 323 328 331 346 352 353 351 348 349 350 350 347 348 349 352 354 355 358 1 8 7
107 115 248 299 241 200 331 273 269 212 232 224 224 228 229 230 223 219 218 219 220 223 222 228 238 259 290 306 313 327 337 347 351 353 346 350 352 349 346 349 350 348 349 353 358 3 3 9 16
126 165 179 250 290 256 321 275 265 263 235 238 233 238 237 232 225 219 217 219 219 218 221 226 235 250 274 296 309 323 335 339 347 348 352 351 348 347 351 351 348 346 349 353 360 3 6 6 12
180 154 115 127 88 265 3 288 303 294 279 232 232 227 228 232 230 226 219 218 217 218 218 222 229 242 262 285 303 315 324 338 349 353 351 350 349 352 351 350 350 350 348 351 358 2 6 6 10
169 118 105 91 72 342 202 305 269 339 284 262 239 237 235 235 232 226 222 221 219 217 219 222 226 234 250 274 295 312 323 340 346 352 348 351 353 353 351 352 352 351 351 351 356 360 4 9 11
151 78 55 59 37 335 334 220 277 236 221 306 339 238 234 234 232 231 228 221 216 213 215 220 225 231 241 260 284 301 318 335 343 348 349 354 356 357 356 355 355 354 353 353 355 358 1 9 13
89 95 346 352 9 228 37 284 253 272 257 230 282 296 204 220 223 223 220 216 212 211 212 216 221 227 235 247 269 289 313 330 343 348 350 356 357 359 359 359 359 358 357 355 354 354 359 6 12
186 176 164 203 198 261 49 240 246 213 259 256 256 264 256 223 216 218 219 217 213 211 213 215 217 222 229 239 254 275 303 324 343 350 351 356 358 0 359 359 358 358 358 357 354 353 358 6 12
185 201 157 98 22 57 240 283 292 293 264 253 247 238 235 215 210 211 213 215 213 211 213 215 215 218 223 230 244 260 285 319 343 350 353 355 359 2 359 359 360 360 359 359 357 355 358 6 13
184 156 91 2 195 248 277 280 236 299 322 340 246 238 238 229 215 212 212 214 212 211 212 213 214 219 221 226 236 247 262 308 339 351 354 354 2 4 1 2 3 2 0 2 5 0 360 7 15
110 226 19 142 161 182 179 254 207 227 243 254 255 257 232 220 220 216 213 213 213 209 210 211 212 213 216 220 228 235 243 281 334 351 355 354 8 7 5 5 6 6 5 4 8 6 7 9 17
192 212 176 147 223 228 145 271 206 237 245 241 267 252 239 221 225 223 218 213 210 208 208 209 210 212 213 216 220 224 229 246 320 352 353 358 13 12 10 10 9 9 9 4 9 9 12 13 16